AirNav   Air Wisconsin pilot careers
 
 937 users online  

WS06 Springstead Airport
Park Falls, Wisconsin, USA


FAA INFORMATION EFFECTIVE 04 JANUARY 2018

Location

FAA Identifier: WS06
Lat/Long: 45-59-15.8140N / 090-09-48.5820W
45-59.263567N / 090-09.809700W
45.9877261 / -90.1634950
(estimated)
Elevation: 1600 ft. / 488 m (estimated)
Variation: 00E (1985)
From city: 14 miles NE of PARK FALLS, WI
Time zone: UTC -6 (UTC -5 during Daylight Saving Time)
Zip code: 54552

Airport Operations

Airport use: Private use. Permission required prior to landing
Activation date: 10/1982
Control tower: no
ARTCC: MINNEAPOLIS CENTER
FSS: GREEN BAY FLIGHT SERVICE STATION
Attendance: UNATNDD
Segmented circle: no

Airport Communications

WX AWOS-3PT at D25 (14 nm NE): 118.375 (715-543-2004)
WX AWOS-3 at ARV (18 nm E): 121.125 (715-356-2417)
WX AWOS-3 at PBH (19 nm SW): 125.875 (715-339-4520)

Nearby radio navigation aids

VOR radial/distance  VOR name  Freq  Var
IWDr182/32.7IRONWOOD VORTAC108.8001E
RHIr304/36.4RHINELANDER VOR/DME109.2002E

 
NDB name  Hdg/Dist  Freq  Var  ID
PARK FALLS080/11.237101WPKF .--. -.- ..-.
ARBOR VITAE283/18.522102WARV .- .-. ...-

Airport Services

Runway Information

Runway 1/19

Dimensions: 2000 x 60 ft. / 610 x 18 m
Surface: turf
RUNWAY 1  RUNWAY 19
Traffic pattern: leftleft

Airport Ownership and Management from official FAA records

Ownership: Privately-owned
Owner: LUGINO D. DALESSANDRO
4671W MARTY LAKE RD
PARK FALLS, WI 54552
Phone 715-583-4533
Manager: LUGINO D. DALESSANDRO
4671W MARTY LAKE RD
PARK FALLS, WI 54552
Phone 715-583-4533

Airport Operational Statistics

Aircraft based on the field: 3
Single engine airplanes: 1
Multi engine airplanes: 1
Helicopters: 1
    

Instrument Procedures

There are no published instrument procedures at WS06.

Some nearby airports with instrument procedures:

KPKF - Park Falls Municipal Airport (11 nm W)
D25 - Manitowish Waters Airport (14 nm NE)
KARV - Lakeland Airport/Noble F. Lee Memorial Field (18 nm E)
KPBH - Price County Airport (19 nm SW)
KIWD - Gogebic-Iron County Airport (32 nm N)
 
Loc | Ops | Rwys | IFR | FBO | Links
Com | Nav | Svcs | Stats | Notes


 
Area around WS06 (Springstead Airport)
 
Road maps at: MapQuest Bing Google
 
Aerial photo
No photo
 
Sectional chart

 
Airport distance calculator
Flying to Springstead Airport? Find the distance to fly.

From to WS06

Sunrise and sunset
Times for 21-Jan-2018
 Local
(UTC-6)
 Zulu
(UTC)
Morning civil twilight07:0213:02
Sunrise07:3513:35
Sunset16:4922:49
Evening civil twilight17:2223:22

Current date and time
Zulu (UTC)  21-Jan-2018 23:59:17
Local (UTC-6)  21-Jan-2018 17:59:17
 
METAR
KD25 
14nm NE 
212335Z AUTO 03004KT 10SM OVC090 02/00 A2997 RMK AO2 T00151003
KARV 
19nm E 
212335Z AUTO 02005KT 10SM OVC085 03/00 A2996 RMK AO2 T00261005
KPBH 
20nm SW 
212335Z AUTO 03004KT 10SM OVC080 02/00 A2995 RMK AO2 T00171005
TAF
KIWD 
32nm N 
212233Z 2123/2218 05008KT 1SM BR OVC003 FM221000 06008G19KT 4SM BR OVC005
KRHI 
36nm SE 
211720Z 2118/2218 05004KT P6SM OVC090 FM220200 06006KT P6SM BKN025 FM220600 06009KT P6SM BKN015 FM221300 06010G16KT 3SM -SN OVC008 FM221500 06013G21KT 1 1/2SM -SN OVC006
NOTAMs
Click for the latest NOTAMs
NOTAMs are issued by the DoD/FAA and will open in a separate window not controlled by AirNav.

 

 
 

Would you like to see your business listed on this page?

 If your business provides an interesting product or service to pilots, flight crews, aircraft, or users of the Springstead Airport, you should consider listing it here.  To start the listing process, click on the button below
 
Add a business
 

Other Pages about Springstead Airport

Update a link
 
Copyright © AirNav, LLC. All rights reserved. Privacy Policy  Contact